Location: Be?chatów
(51.3665°N, 19.3745°E)
Time: 21:49:42
(UTC+00:00)

Cosmos 1408 Rocket - Pass Details

Date: 19 May 2025
Orbit: 594 x 625 km, 82.6° (Epoch: 16 June)

Event Time Altitude Azimuth Distance (km) Brightness Sun altitude
Rises 21:17:07 0° 354° (N) 2,888 8.6 -16.4°
Reaches altitude 10° 21:19:27 10° 1° (N) 1,973 7.2 -16.6°
Maximum altitude 21:23:36 42° 73° (ENE) 867 4.2 -16.8°
Enters shadow 21:25:27 27° 126° (SE) 1,168 4.5 -16.9°
